This demonstration page uses our WeatherBlox Daily Observations layout. Learn more.

Left ArrowRight Arrow

38.83388, -104.82136

Hourly Observations for May 8, 2018

Temp ( °F °C ) Dew Point ( °F °C ) Humidity (%) Winds ( mph kmh ) Pressure ( in mb ) Visibility ( mi km ) Precip ( " mm )
12:58 am 00:58 Mostly Cloudy 66 19.1 17 -8.3 15 15 N 5 7 29.55 1001 10 16 0.00 0.00
1:58 am 01:58 Mostly Cloudy 65 18.4 17 -8.2 16 16 SSE 3 6 29.54 1000 10 16 0.00 0.00
2:58 am 02:58 Mostly Cloudy 65 18.3 16 -8.8 15 15 W 5 7 29.55 1001 10 16 0.00 0.00
3:58 am 03:58 Cloudy 66 19.1 15 -9.4 14 14 NW 10 17 29.54 1000 10 16 0.00 0.00
4:58 am 04:58 Cloudy 64 17.6 17 -8.6 16 16 WNW 3 6 29.55 1001 10 16 0.00 0.00
5:58 am 05:58 Cloudy 66 18.9 15 -9.3 14 14 W 7 11 29.55 1001 10 16 0.00 0.00
6:11 am 06:11 Mostly Cloudy 63 17 19 -7 19 19 NW 14 22 29.57 1001 10 16 0.00 0.00
6:58 am 06:58 Mostly Sunny 58 14.2 24 -4.2 28 28 NNW 15 24 29.61 1003 10 16 0.00 0.00
7:58 am 07:58 Sunny 58 14.2 32 -0.2 37 37 NNW 16 26 29.62 1003 10 16 0.00 0.00
8:58 am 08:58 Sunny 61 15.9 36 2 39 39 N 16 26 29.62 1003 10 16 0.00 0.00
9:58 am 09:58 Sunny 63 17.1 36 2.2 37 37 N 15 24 29.60 1003 10 16 0.06 1.52
10:58 am 10:58 Sunny 67 19.4 36 2 32 32 N 14 22 29.60 1003 10 16 0.00 0.00
11:58 am 11:58 Mostly Sunny 75 23.7 29 -1.4 19 19 SSE 9 15 29.56 1001 10 16 0.00 0.00
12:58 pm 12:58 Mostly Sunny 73 22.6 28 -2.5 19 19 SE 14 22 29.55 1001 10 16 0.00 0.00
1:58 pm 13:58 Mostly Cloudy 74 23.1 23 -5 15 15 SE 10 17 29.54 1000 10 16 0.00 0.00
2:58 pm 14:58 Mostly Cloudy 72 22.2 29 -1.4 21 21 ESE 14 22 29.57 1001 10 16 0.00 0.00
3:58 pm 15:58 Mostly Cloudy 71 21.6 31 -0.6 23 23 E 3 6 29.56 1001 10 16 0.00 0.00
4:58 pm 16:58 Mostly Cloudy 71 21.8 29 -1.7 21 21 SSW 6 9 29.56 1001 10 16 0.00 0.00
5:58 pm 17:58 Mostly Cloudy 69 20.5 30 -0.9 24 24 SSE 9 15 29.57 1001 10 16 0.00 0.00
6:58 pm 18:58 Sunny 67 19.6 30 -1.2 25 25 S 6 9 29.62 1003 10 16 0.00 0.00
7:58 pm 19:58 Sunny 65 18.6 29 -1.9 25 25 S 7 11 29.65 1004 10 16 0.00 0.00
8:58 pm 20:58 Clear 65 18.2 28 -2.5 24 24 SSW 5 7 29.67 1005 10 16 0.00 0.00
9:58 pm 21:58 Clear 62 16.8 27 -2.6 27 27 Calm 29.69 1005 10 16 0.00 0.00
10:58 pm 22:58 Clear 60 15.4 28 -2.5 29 29 Calm 29.69 1005 10 16 0.00 0.00
11:58 pm 23:58 Clear 62 16.9 26 -3.2 25 25 SSW 10 17 29.63 1003 10 16 0.00 0.00

Powered by AerisWeather